,,,PA_Meas_PMT16A,,PR_Meas_QMR101_102,,RH_Meas_QMH101,,SR_Meas_QMS101,,TA_Meas_QMH101,,GenWind,,GenWind,
date,time,status,PA,status,PR,status,RH,status,SR,status,TA,status,DirAvg,status,SpdAvg,
2010-07-16, 00:00:04,VALID,999.286,VALID,0,VALID,87.321,VALID,0,VALID,24.2671,VALID,54,VALID,0.714453,
2010-07-16, 00:01:04,VALID,999.268,VALID,0,VALID,87.4812,VALID,0,VALID,24.2866,VALID,29,VALID,0.825,
2010-07-16, 00:02:04,VALID,999.264,VALID,0,VALID,87.6796,VALID,0,VALID,24.2671,VALID,9,VALID,1.02383,
2010-07-16, 00:03:04,VALID,999.228,VALID,0,VALID,88.4654,VALID,0,VALID,24.2866,VALID,351,VALID,0.754687,
2010-07-16, 00:04:04,VALID,999.193,VALID,0,VALID,88.8469,VALID,0,VALID,24.2263,VALID,349,VALID,0.989453,
2010-07-16, 00:05:04,VALID,999.197,VALID,0,VALID,88.7783,VALID,0,VALID,24.1891,VALID,349,VALID,0.997266,
2010-07-16, 00:06:04,VALID,999.179,VALID,0,VALID,89.0758,VALID,0,VALID,24.1696,VALID,353,VALID,1.02148,
2010-07-16, 00:07:04,VALID,999.141,VALID,0,VALID,89.1521,VALID,0,VALID,24.15,VALID,8,VALID,1.14453,
2010-07-16, 00:08:04,VALID,999.121,VALID,0,VALID,88.9843,VALID,0,VALID,24.111,VALID,30,VALID,1.36289,
2010-07-16, 00:09:04,VALID,999.053,VALID,0,VALID,88.9156,VALID,0,VALID,24.072,VALID,28,VALID,1.09492,
2010-07-16, 00:10:04,VALID,999.085,VALID,0,VALID,88.7172,VALID,0,VALID,24.0134,VALID,29,VALID,1.14102,
2010-07-16, 00:11:04,VALID,999.019,VALID,0,VALID,88.6028,VALID,0,VALID,23.9726,VALID,30,VALID,1.31016,
2010-07-16, 00:12:04,VALID,999.018,VALID,0,VALID,89.0987,VALID,0,VALID,23.9744,VALID,37,VALID,0.995313,
2010-07-16, 00:13:04,VALID,999.036,VALID,0,VALID,89.8388,VALID,0,VALID,23.9744,VALID,57,VALID,1.19883,
2010-07-16, 00:14:04,VALID,999.005,VALID,0,VALID,89.9227,VALID,0,VALID,23.9939,VALID,60,VALID,1.45039,
2010-07-16, 00:15:04,VALID,999.045,VALID,0,VALID,90.3271,VALID,0,VALID,23.9726,VALID,65,VALID,0.989453,
2010-07-16, 00:16:04,VALID,999.063,VALID,0,VALID,90.4186,VALID,0,VALID,23.9726,VALID,69,VALID,0.862891,
2010-07-16, 00:17:04,VALID,999.097,VALID,0,VALID,90.5254,VALID,0,VALID,23.9939,VALID,70,VALID,0.173047,
2010-07-16, 00:18:04,VALID,999.132,VALID,0,VALID,90.6094,VALID,0,VALID,23.9726,VALID,70,VALID,0.372656,
2010-07-16, 00:19:04,VALID,999.139,VALID,0,VALID,90.6933,VALID,0,VALID,23.9939,VALID,70,VALID,0.199609,
2010-07-16, 00:20:04,VALID,999.134,VALID,0,VALID,90.7009,VALID,0,VALID,23.9744,VALID,70,VALID,0,
2010-07-16, 00:21:04,VALID,999.125,VALID,0,VALID,90.7391,VALID,0,VALID,23.9744,VALID,70,VALID,0,
2010-07-16, 00:22:04,VALID,999.131,VALID,0,VALID,90.8383,VALID,0,VALID,23.9549,VALID,70,VALID,0,
2010-07-16, 00:23:04,VALID,999.132,VALID,0,VALID,90.6628,VALID,0,VALID,23.9549,VALID,70,VALID,0,
2010-07-16, 00:24:04,VALID,999.145,VALID,0,VALID,90.3652,VALID,0,VALID,23.9354,VALID,70,VALID,0,
2010-07-16, 00:25:04,VALID,999.111,VALID,0,VALID,90.5102,VALID,0,VALID,23.914,VALID,70,VALID,0,
2010-07-16, 00:26:04,VALID,999.098,VALID,0,VALID,89.9074,VALID,0,VALID,23.9159,VALID,24,VALID,0.0871094,
2010-07-16, 00:27:04,VALID,999.048,VALID,0,VALID,89.6251,VALID,0,VALID,23.9159,VALID,8,VALID,0.870313,
2010-07-16, 00:28:04,VALID,999.047,VALID,0,VALID,89.5031,VALID,0,VALID,23.9336,VALID,8,VALID,0.725781,
2010-07-16, 00:29:04,VALID,999.011,VALID,0,VALID,89.5107,VALID,0,VALID,23.9354,VALID,8,VALID,0.390234,
2010-07-16, 00:30:04,VALID,998.982,VALID,0,VALID,89.6251,VALID,0,VALID,23.9354,VALID,8,VALID,0.194141,
2010-07-16, 00:31:04,VALID,998.955,VALID,0,VALID,89.7396,VALID,0,VALID,23.9354,VALID,8,VALID,0.0597656,
2010-07-16, 00:32:04,VALID,998.953,VALID,0,VALID,89.8006,VALID,0,VALID,23.9159,VALID,8,VALID,0,
2010-07-16, 00:33:04,VALID,998.94,VALID,0,VALID,89.7701,VALID,0,VALID,23.9159,VALID,8,VALID,0,
2010-07-16, 00:34:04,VALID,998.919,VALID,0,VALID,89.4497,VALID,0,VALID,23.8963,VALID,8,VALID,0,
2010-07-16, 00:35:04,VALID,998.941,VALID,0,VALID,89.1368,VALID,0,VALID,23.8768,VALID,19,VALID,0.270703,
2010-07-16, 00:36:04,VALID,998.874,VALID,0,VALID,89.1979,VALID,0,VALID,23.8963,VALID,19,VALID,0.126172,
2010-07-16, 00:37:04,VALID,998.853,VALID,0,VALID,89.3886,VALID,0,VALID,23.9159,VALID,19,VALID,0.167969,
2010-07-16, 00:38:04,VALID,998.848,VALID,0,VALID,89.4573,VALID,0,VALID,23.9159,VALID,19,VALID,0.194141,
2010-07-16, 00:39:04,VALID,998.83,VALID,0,VALID,89.4115,VALID,0,VALID,23.9159,VALID,19,VALID,0.0714844,
2010-07-16, 00:40:04,VALID,998.813,VALID,0,VALID,89.175,VALID,0,VALID,23.9372,VALID,19,VALID,0.0640625,
2010-07-16, 00:41:04,VALID,998.813,VALID,0,VALID,89.1521,VALID,0,VALID,23.9159,VALID,19,VALID,0.363672,
2010-07-16, 00:42:04,VALID,998.835,VALID,0,VALID,88.6257,VALID,0,VALID,23.9354,VALID,82,VALID,0.714063,
2010-07-16, 00:43:04,VALID,998.831,VALID,0,VALID,88.8164,VALID,0,VALID,23.9939,VALID,108,VALID,1.29883,
2010-07-16, 00:44:04,VALID,998.856,VALID,0,VALID,89.5641,VALID,0,VALID,24.0329,VALID,108,VALID,1.17148,
2010-07-16, 00:45:04,VALID,998.854,VALID,0,VALID,89.9074,VALID,0,VALID,24.0525,VALID,122,VALID,1.61914,
2010-07-16, 00:46:04,VALID,998.865,VALID,0,VALID,90.3271,VALID,0,VALID,24.072,VALID,129,VALID,1.5293,
2010-07-16, 00:47:04,VALID,998.894,VALID,0,VALID,90.5102,VALID,0,VALID,24.0525,VALID,133,VALID,1.81211,
2010-07-16, 00:48:04,VALID,998.894,VALID,0,VALID,90.5254,VALID,0,VALID,24.0311,VALID,137,VALID,1.92813,
2010-07-16, 00:49:04,VALID,998.944,VALID,0,VALID,90.6857,VALID,0,VALID,24.072,VALID,143,VALID,2.15039,
2010-07-16, 00:50:04,VALID,998.939,VALID,0,VALID,90.8611,VALID,0,VALID,24.111,VALID,161,VALID,1.5707,
2010-07-16, 00:51:04,VALID,998.915,VALID,0,VALID,90.9909,VALID,0,VALID,24.15,VALID,170,VALID,2.31523,
2010-07-16, 00:52:04,VALID,998.889,VALID,0,VALID,91.0137,VALID,0,VALID,24.2086,VALID,181,VALID,2.16719,
2010-07-16, 00:53:04,VALID,998.884,VALID,0,VALID,90.0448,VALID,0,VALID,24.2281,VALID,208,VALID,1.61172,
2010-07-16, 00:54:04,VALID,998.872,VALID,0,VALID,89.5107,VALID,0,VALID,24.2671,VALID,195,VALID,1.3418,
2010-07-16, 00:55:04,VALID,998.875,VALID,0,VALID,88.8546,VALID,0,VALID,24.2653,VALID,186,VALID,1.43086,
2010-07-16, 00:56:04,VALID,998.838,VALID,0,VALID,88.5494,VALID,0,VALID,24.3062,VALID,183,VALID,1.12773,
2010-07-16, 00:57:04,VALID,998.831,VALID,0,VALID,88.1984,VALID,0,VALID,24.3257,VALID,208,VALID,1.29336,
2010-07-16, 00:58:04,VALID,998.829,VALID,0,VALID,88.1603,VALID,0,VALID,24.3647,VALID,217,VALID,0.601953,
2010-07-16, 00:59:04,VALID,998.83,VALID,0,VALID,88.0534,VALID,0,VALID,24.3842,VALID,218,VALID,0.185937,
2010-07-16, 01:00:04,VALID,998.846,VALID,0,VALID,87.8627,VALID,0,VALID,24.3647,VALID,217,VALID,0.129297,
2010-07-16, 01:01:04,VALID,998.835,VALID,0,VALID,87.4889,VALID,0,VALID,24.3238,VALID,166,VALID,0.189063,
2010-07-16, 01:02:04,VALID,998.812,VALID,0,VALID,87.7254,VALID,0,VALID,24.3452,VALID,53,VALID,0.610547,
2010-07-16, 01:03:04,VALID,998.807,VALID,0,VALID,87.8322,VALID,0,VALID,24.3257,VALID,35,VALID,0.712891,
2010-07-16, 01:04:04,VALID,998.796,VALID,0,VALID,88.3968,VALID,0,VALID,24.3062,VALID,18,VALID,1.11016,
2010-07-16, 01:05:04,VALID,998.787,VALID,0,VALID,88.763,VALID,0,VALID,24.2476,VALID,18,VALID,1.04219,
2010-07-16, 01:06:04,VALID,998.843,VALID,0,VALID,89.1674,VALID,0,VALID,24.1696,VALID,18,VALID,0.648047,
2010-07-16, 01:07:04,VALID,998.847,VALID,0,VALID,89.4191,VALID,0,VALID,24.1305,VALID,18,VALID,0.338672,
2010-07-16, 01:08:04,VALID,998.824,VALID,0,VALID,89.6786,VALID,0,VALID,24.0897,VALID,18,VALID,0.539453,
2010-07-16, 01:09:04,VALID,998.81,VALID,0,VALID,89.9837,VALID,0,VALID,24.072,VALID,18,VALID,0.873438,
2010-07-16, 01:10:04,VALID,998.786,VALID,0,VALID,90.1668,VALID,0,VALID,24.0525,VALID,17,VALID,1.33125,
2010-07-16, 01:11:04,VALID,998.741,VALID,0,VALID,90.2508,VALID,0,VALID,24.0134,VALID,15,VALID,1.50156,
2010-07-16, 01:12:04,VALID,998.747,VALID,0,VALID,90.2584,VALID,0,VALID,23.9939,VALID,11,VALID,1.48711,
2010-07-16, 01:13:04,VALID,998.734,VALID,0,VALID,90.3576,VALID,0,VALID,23.9939,VALID,360,VALID,1.26992,
2010-07-16, 01:14:04,VALID,998.731,VALID,0,VALID,90.2737,VALID,0,VALID,23.9744,VALID,358,VALID,1.40234,
2010-07-16, 01:15:04,VALID,998.723,VALID,0,VALID,90.1134,VALID,0,VALID,23.9744,VALID,21,VALID,1.43789,
2010-07-16, 01:16:04,VALID,998.694,VALID,0,VALID,90.0143,VALID,0,VALID,23.9549,VALID,41,VALID,0.865234,
2010-07-16, 01:17:04,VALID,998.689,VALID,0,VALID,89.999,VALID,0,VALID,23.9549,VALID,8,VALID,1.0625,
2010-07-16, 01:18:04,VALID,998.616,VALID,0,VALID,90.06,VALID,0,VALID,23.9159,VALID,12,VALID,0.567969,
2010-07-16, 01:19:04,VALID,998.603,VALID,0,VALID,90.2279,VALID,0,VALID,23.9159,VALID,54,VALID,0.752734,
2010-07-16, 01:20:04,VALID,998.594,VALID,0,VALID,90.1821,VALID,0,VALID,23.9159,VALID,56,VALID,1.2457,
2010-07-16, 01:21:04,VALID,998.552,VALID,0,VALID,90.0677,VALID,0,VALID,23.914,VALID,45,VALID,1.35703,
2010-07-16, 01:22:04,VALID,998.513,VALID,0,VALID,89.938,VALID,0,VALID,23.9549,VALID,42,VALID,1.29922,
2010-07-16, 01:23:04,VALID,998.562,VALID,0,VALID,89.9914,VALID,0,VALID,23.9939,VALID,35,VALID,1.38086,
2010-07-16, 01:24:04,VALID,998.499,VALID,0,VALID,90.0371,VALID,0,VALID,23.9921,VALID,45,VALID,1.40234,
2010-07-16, 01:25:04,VALID,998.54,VALID,0,VALID,90.1363,VALID,0,VALID,23.9726,VALID,44,VALID,1.26797,
2010-07-16, 01:26:04,VALID,998.493,VALID,0,VALID,90.2889,VALID,0,VALID,24.0134,VALID,29,VALID,1.32578,
2010-07-16, 01:27:04,VALID,998.445,VALID,0,VALID,90.3347,VALID,0,VALID,23.9744,VALID,3,VALID,1.58242,
2010-07-16, 01:28:04,VALID,998.411,VALID,0,VALID,90.2355,VALID,0,VALID,23.9549,VALID,339,VALID,1.63008,
2010-07-16, 01:29:04,VALID,998.348,VALID,0,VALID,90.205,VALID,0,VALID,23.9549,VALID,328,VALID,1.50625,
2010-07-16, 01:30:04,VALID,998.366,VALID,0,VALID,90.3194,VALID,0,VALID,23.9744,VALID,327,VALID,1.09219,
2010-07-16, 01:31:04,VALID,998.417,VALID,0,VALID,90.0829,VALID,0,VALID,23.9744,VALID,49,VALID,0.625781,
2010-07-16, 01:32:04,VALID,998.495,VALID,0,VALID,89.938,VALID,0,VALID,23.9744,VALID,96,VALID,0.700391,
2010-07-16, 01:33:04,VALID,998.463,VALID,0,VALID,89.6557,VALID,0,VALID,23.9531,VALID,107,VALID,0.617969,
2010-07-16, 01:34:04,VALID,998.431,VALID,0,VALID,89.2818,VALID,0,VALID,23.9744,VALID,93,VALID,0.517578,
2010-07-16, 01:35:04,VALID,998.387,VALID,0,VALID,89.0606,VALID,0,VALID,23.9744,VALID,8,VALID,0.873828,
2010-07-16, 01:36:04,VALID,998.375,VALID,0,VALID,88.4426,VALID,0,VALID,24.0134,VALID,358,VALID,0.984375,
2010-07-16, 01:37:04,VALID,998.373,VALID,0,VALID,88.7172,VALID,0,VALID,24.0915,VALID,343,VALID,0.666797,
2010-07-16, 01:38:04,VALID,998.397,VALID,0,VALID,88.4578,VALID,0,VALID,24.0915,VALID,343,VALID,0.410547,
2010-07-16, 01:39:04,VALID,998.388,VALID,0,VALID,88.8774,VALID,0,VALID,24.0915,VALID,86,VALID,0.965234,
2010-07-16, 01:40:04,VALID,998.415,VALID,0,VALID,89.32,VALID,0,VALID,24.1128,VALID,116,VALID,1.97148,
2010-07-16, 01:41:04,VALID,998.428,VALID,0,VALID,89.4954,VALID,0,VALID,24.072,VALID,127,VALID,1.36563,
2010-07-16, 01:42:04,VALID,998.414,VALID,0,VALID,89.2742,VALID,0,VALID,24.0329,VALID,135,VALID,0.778906,
2010-07-16, 01:43:04,VALID,998.39,VALID,0,VALID,89.7396,VALID,0,VALID,24.0329,VALID,168,VALID,1.57266,
2010-07-16, 01:44:04,VALID,998.378,VALID,0,VALID,89.9761,VALID,0,VALID,24.0506,VALID,173,VALID,1.20664,
2010-07-16, 01:45:04,VALID,998.371,VALID,0,VALID,90.0066,VALID,0,VALID,24.111,VALID,170,VALID,0.712109,
2010-07-16, 01:46:04,VALID,998.372,VALID,0,VALID,89.6328,VALID,0,VALID,24.111,VALID,184,VALID,0.364062,
2010-07-16, 01:47:04,VALID,998.367,VALID,0,VALID,89.526,VALID,0,VALID,24.1305,VALID,184,VALID,0.689453,
2010-07-16, 01:48:04,VALID,998.36,VALID,0,VALID,89.2284,VALID,0,VALID,24.15,VALID,185,VALID,1.19961,
2010-07-16, 01:49:04,VALID,998.396,VALID,0,VALID,89.3886,VALID,0,VALID,24.2086,VALID,170,VALID,1.57148,
2010-07-16, 01:50:04,VALID,998.436,VALID,0,VALID,89.1063,VALID,0,VALID,24.2281,VALID,174,VALID,1.60859,
2010-07-16, 01:51:04,VALID,998.464,VALID,0,VALID,88.5951,VALID,0,VALID,24.2671,VALID,176,VALID,1.81055,
2010-07-16, 01:52:04,VALID,998.448,VALID,0,VALID,88.6028,VALID,0,VALID,24.3257,VALID,173,VALID,1.91875,
2010-07-16, 01:53:04,VALID,998.43,VALID,0,VALID,88.5189,VALID,0,VALID,24.3452,VALID,199,VALID,2.36055,
2010-07-16, 01:54:04,VALID,998.387,VALID,0,VALID,88.3129,VALID,0,VALID,24.3452,VALID,215,VALID,1.74727,
2010-07-16, 01:55:04,VALID,998.396,VALID,0,VALID,87.3973,VALID,0,VALID,24.3842,VALID,248,VALID,1.40117,
2010-07-16, 01:56:04,VALID,998.417,VALID,0,VALID,87.3134,VALID,0,VALID,24.4428,VALID,233,VALID,1.64258,
2010-07-16, 01:57:04,VALID,998.434,VALID,0,VALID,87.4202,VALID,0,VALID,24.4428,VALID,237,VALID,0.592969,
2010-07-16, 01:58:04,VALID,998.487,VALID,0,VALID,87.0845,VALID,0,VALID,24.4428,VALID,223,VALID,0.98125,
2010-07-16, 01:59:04,VALID,998.474,VALID,0,VALID,87.1532,VALID,0,VALID,24.4428,VALID,229,VALID,0.942969,
2010-07-16, 02:00:04,VALID,998.478,VALID,0,VALID,87.2752,VALID,0,VALID,24.4623,VALID,223,VALID,0.74375,
2010-07-16, 02:01:04,VALID,998.514,VALID,0,VALID,87.3363,VALID,0,VALID,24.4623,VALID,209,VALID,0.903516,
2010-07-16, 02:02:04,VALID,998.506,VALID,0,VALID,86.848,VALID,0,VALID,24.4623,VALID,216,VALID,1.08438,
2010-07-16, 02:03:04,VALID,998.464,VALID,0,VALID,86.1766,VALID,0,VALID,24.5209,VALID,228,VALID,0.757031,
2010-07-16, 02:04:04,VALID,998.445,VALID,0,VALID,85.8103,VALID,0,VALID,24.5404,VALID,253,VALID,0.588672,
2010-07-16, 02:05:04,VALID,998.435,VALID,0,VALID,86.2605,VALID,0,VALID,24.5599,VALID,288,VALID,0.483203,
2010-07-16, 02:06:04,VALID,998.394,VALID,0,VALID,86.6267,VALID,0,VALID,24.5404,VALID,283,VALID,0.832031,
2010-07-16, 02:07:04,VALID,998.391,VALID,0,VALID,86.9777,VALID,0,VALID,24.5209,VALID,282,VALID,0.817578,
2010-07-16, 02:08:04,VALID,998.379,VALID,0,VALID,87.0845,VALID,0,VALID,24.4818,VALID,255,VALID,0.801953,
2010-07-16, 02:09:04,VALID,998.369,VALID,0,VALID,87.176,VALID,0,VALID,24.4818,VALID,255,VALID,0.927344,
2010-07-16, 02:10:04,VALID,998.361,VALID,0,VALID,86.6954,VALID,0,VALID,24.4818,VALID,259,VALID,0.671875,
2010-07-16, 02:11:04,VALID,998.387,VALID,0,VALID,86.8632,VALID,0,VALID,24.4818,VALID,260,VALID,0.366406,
2010-07-16, 02:12:04,VALID,998.384,VALID,0,VALID,87.3515,VALID,0,VALID,24.4818,VALID,262,VALID,0.628516,
2010-07-16, 02:13:04,VALID,998.373,VALID,0,VALID,87.5957,VALID,0,VALID,24.4233,VALID,3,VALID,0.887109,
2010-07-16, 02:14:04,VALID,998.376,VALID,0,VALID,88.1297,VALID,0,VALID,24.3452,VALID,35,VALID,1.56211,
2010-07-16, 02:15:04,VALID,998.393,VALID,0,VALID,88.9003,VALID,0,VALID,24.2476,VALID,54,VALID,1.14219,
2010-07-16, 02:16:04,VALID,998.37,VALID,0,VALID,89.526,VALID,0,VALID,24.1696,VALID,74,VALID,1.01016,
2010-07-16, 02:17:04,VALID,998.333,VALID,0,VALID,89.8388,VALID,0,VALID,24.1305,VALID,74,VALID,1.21523,
2010-07-16, 02:18:04,VALID,998.316,VALID,0,VALID,89.7243,VALID,0,VALID,24.072,VALID,49,VALID,1.07148,
2010-07-16, 02:19:04,VALID,998.316,VALID,0,VALID,89.938,VALID,0,VALID,24.072,VALID,36,VALID,1.03242,
2010-07-16, 02:20:04,VALID,998.279,VALID,0,VALID,90.0143,VALID,0,VALID,24.0915,VALID,35,VALID,0.959375,
2010-07-16, 02:21:04,VALID,998.275,VALID,0,VALID,90.1058,VALID,0,VALID,24.0525,VALID,27,VALID,0.870703,
2010-07-16, 02:22:04,VALID,998.288,VALID,0,VALID,90.1897,VALID,0,VALID,24.0134,VALID,22,VALID,0.603906,
2010-07-16, 02:23:04,VALID,998.293,VALID,0,VALID,90.2889,VALID,0,VALID,23.9549,VALID,6,VALID,0.610937,
2010-07-16, 02:24:04,VALID,998.278,VALID,0,VALID,90.4644,VALID,0,VALID,23.9549,VALID,341,VALID,0.479297,
2010-07-16, 02:25:04,VALID,998.25,VALID,0,VALID,90.6246,VALID,0,VALID,23.9744,VALID,341,VALID,0.310156,
2010-07-16, 02:26:04,VALID,998.234,VALID,0,VALID,90.7238,VALID,0,VALID,23.9549,VALID,333,VALID,0.698047,
2010-07-16, 02:27:04,VALID,998.203,VALID,0,VALID,90.5712,VALID,0,VALID,23.9354,VALID,300,VALID,1.06562,
2010-07-16, 02:28:04,VALID,998.186,VALID,0,VALID,90.4949,VALID,0,VALID,23.9354,VALID,300,VALID,0.665234,
2010-07-16, 02:29:04,VALID,998.173,VALID,0,VALID,90.4034,VALID,0,VALID,23.8963,VALID,311,VALID,0.626953,
2010-07-16, 02:30:04,VALID,998.235,VALID,0,VALID,90.3423,VALID,0,VALID,23.9159,VALID,257,VALID,0.563281,
2010-07-16, 02:31:04,VALID,998.218,VALID,0,VALID,90.4263,VALID,0,VALID,23.9549,VALID,208,VALID,1.05508,
2010-07-16, 02:32:04,VALID,998.216,VALID,0,VALID,90.2889,VALID,0,VALID,23.9939,VALID,208,VALID,0.770312,
2010-07-16, 02:33:04,VALID,998.241,VALID,0,VALID,90.0066,VALID,0,VALID,23.9939,VALID,208,VALID,0.349219,
2010-07-16, 02:34:04,VALID,998.275,VALID,0,VALID,89.8235,VALID,0,VALID,23.9939,VALID,208,VALID,0.203516,
2010-07-16, 02:35:04,VALID,998.276,VALID,0,VALID,89.8083,VALID,0,VALID,24.0134,VALID,208,VALID,0.211719,
2010-07-16, 02:36:04,VALID,998.257,VALID,0,VALID,89.8311,VALID,0,VALID,23.9939,VALID,208,VALID,0.505859,
2010-07-16, 02:37:04,VALID,998.242,VALID,0,VALID,89.4344,VALID,0,VALID,23.9939,VALID,27,VALID,0.997656,
2010-07-16, 02:38:04,VALID,998.221,VALID,0,VALID,89.4039,VALID,0,VALID,23.9744,VALID,27,VALID,0.755859,
2010-07-16, 02:39:04,VALID,998.219,VALID,0,VALID,89.5183,VALID,0,VALID,23.9531,VALID,27,VALID,0.471484,
2010-07-16, 02:40:04,VALID,998.212,VALID,0,VALID,89.6023,VALID,0,VALID,23.9744,VALID,27,VALID,0.448438,
2010-07-16, 02:41:04,VALID,998.213,VALID,0,VALID,89.648,VALID,0,VALID,23.9354,VALID,27,VALID,0.624609,
2010-07-16, 02:42:04,VALID,998.191,VALID,0,VALID,89.7701,VALID,0,VALID,23.9159,VALID,27,VALID,0.521875,
2010-07-16, 02:43:04,VALID,998.215,VALID,0,VALID,89.8159,VALID,0,VALID,23.8768,VALID,27,VALID,0.691797,
2010-07-16, 02:44:04,VALID,998.23,VALID,0,VALID,89.7854,VALID,0,VALID,23.8573,VALID,27,VALID,0.199609,
2010-07-16, 02:45:04,VALID,998.207,VALID,0,VALID,89.9837,VALID,0,VALID,23.8183,VALID,30,VALID,0,
2010-07-16, 02:46:04,VALID,998.241,VALID,0,VALID,90.0219,VALID,0,VALID,23.7793,VALID,32,VALID,0.326953,
2010-07-16, 02:47:04,VALID,998.254,VALID,0,VALID,89.9685,VALID,0,VALID,23.7597,VALID,23,VALID,1.27148,
2010-07-16, 02:48:04,VALID,998.22,VALID,0,VALID,90.1287,VALID,0,VALID,23.7012,VALID,14,VALID,1.82578,
2010-07-16, 02:49:04,VALID,998.203,VALID,0,VALID,90.2813,VALID,0,VALID,23.6817,VALID,1,VALID,1.79062,
2010-07-16, 02:50:04,VALID,998.245,VALID,0,VALID,90.2889,VALID,0,VALID,23.6622,VALID,347,VALID,1.22305,
2010-07-16, 02:51:04,VALID,998.271,VALID,0,VALID,90.3957,VALID,0,VALID,23.6214,VALID,337,VALID,0.720312,
2010-07-16, 02:52:04,VALID,998.271,VALID,0,VALID,90.4568,VALID,0,VALID,23.6232,VALID,337,VALID,0.253906,
2010-07-16, 02:53:04,VALID,998.283,VALID,0,VALID,90.5102,VALID,0,VALID,23.6232,VALID,337,VALID,0.189453,
2010-07-16, 02:54:04,VALID,998.267,VALID,0,VALID,90.5941,VALID,0,VALID,23.6036,VALID,337,VALID,0,
2010-07-16, 02:55:04,VALID,998.249,VALID,0,VALID,90.6933,VALID,0,VALID,23.6036,VALID,338,VALID,0.448438,
2010-07-16, 02:56:04,VALID,998.255,VALID,0,VALID,90.7238,VALID,0,VALID,23.5628,VALID,15,VALID,0.926562,
2010-07-16, 02:57:04,VALID,998.303,VALID,0,VALID,90.5026,VALID,0,VALID,23.5646,VALID,44,VALID,1.87969,
2010-07-16, 02:58:04,VALID,998.321,VALID,0,VALID,90.4873,VALID,0,VALID,23.5238,VALID,64,VALID,1.44844,
2010-07-16, 02:59:04,VALID,998.327,VALID,0,VALID,90.9222,VALID,0,VALID,23.5043,VALID,44,VALID,1.8125,
2010-07-16, 03:00:04,VALID,998.307,VALID,0,VALID,91.0595,VALID,0,VALID,23.5256,VALID,25,VALID,1.66602,
2010-07-16, 03:01:04,VALID,998.3,VALID,0,VALID,90.9909,VALID,0,VALID,23.5061,VALID,2,VALID,1.9582,
2010-07-16, 03:02:04,VALID,998.269,VALID,0,VALID,90.9909,VALID,0,VALID,23.4671,VALID,342,VALID,1.72695,
2010-07-16, 03:03:04,VALID,998.25,VALID,0,VALID,90.9985,VALID,0,VALID,23.4866,VALID,353,VALID,1.35,
2010-07-16, 03:04:04,VALID,998.276,VALID,0,VALID,91.0137,VALID,0,VALID,23.4866,VALID,337,VALID,1.08555,
2010-07-16, 03:05:04,VALID,998.322,VALID,0,VALID,90.8993,VALID,0,VALID,23.5061,VALID,339,VALID,0.334766,
2010-07-16, 03:06:04,VALID,998.318,VALID,0,VALID,90.7543,VALID,0,VALID,23.5061,VALID,3,VALID,0.433984,
2010-07-16, 03:07:04,VALID,998.325,VALID,0,VALID,90.6857,VALID,0,VALID,23.5061,VALID,65,VALID,0.483203,
2010-07-16, 03:08:04,VALID,998.326,VALID,0,VALID,90.4491,VALID,0,VALID,23.5061,VALID,110,VALID,1.65117,
2010-07-16, 03:09:04,VALID,998.334,VALID,0,VALID,90.7238,VALID,0,VALID,23.4671,VALID,88,VALID,2.075,
2010-07-16, 03:10:04,VALID,998.315,VALID,0,VALID,91.0214,VALID,0,VALID,23.4671,VALID,133,VALID,1.56562,
2010-07-16, 03:11:04,VALID,998.277,VALID,0,VALID,90.9985,VALID,0,VALID,23.4848,VALID,132,VALID,1.31758,
2010-07-16, 03:12:04,VALID,998.275,VALID,0,VALID,90.8764,VALID,0,VALID,23.5256,VALID,141,VALID,1.1668,
2010-07-16, 03:13:04,VALID,998.215,VALID,0,VALID,90.6933,VALID,0,VALID,23.5043,VALID,123,VALID,0.736719,
2010-07-16, 03:14:04,VALID,998.206,VALID,0,VALID,90.6323,VALID,0,VALID,23.5451,VALID,174,VALID,0.529297,
2010-07-16, 03:15:04,VALID,998.179,VALID,0,VALID,90.5712,VALID,0,VALID,23.6036,VALID,202,VALID,0.560547,
2010-07-16, 03:16:04,VALID,998.202,VALID,0,VALID,90.3271,VALID,0,VALID,23.6019,VALID,202,VALID,0.239453,
2010-07-16, 03:17:04,VALID,998.206,VALID,0,VALID,90.0448,VALID,0,VALID,23.6427,VALID,98,VALID,0.852734,
2010-07-16, 03:18:04,VALID,998.208,VALID,0,VALID,89.7777,VALID,0,VALID,23.6817,VALID,73,VALID,1.0832,
2010-07-16, 03:19:04,VALID,998.205,VALID,0,VALID,89.2589,VALID,0,VALID,23.6604,VALID,39,VALID,1.73945,
2010-07-16, 03:20:04,VALID,998.204,VALID,0,VALID,89.1368,VALID,0,VALID,23.6799,VALID,27,VALID,1.37461,
2010-07-16, 03:21:04,VALID,998.208,VALID,0,VALID,88.9995,VALID,0,VALID,23.7012,VALID,23,VALID,0.915234,
2010-07-16, 03:22:04,VALID,998.23,VALID,0,VALID,88.8851,VALID,0,VALID,23.6817,VALID,35,VALID,0.594531,
2010-07-16, 03:23:04,VALID,998.194,VALID,0,VALID,89.2894,VALID,0,VALID,23.6817,VALID,118,VALID,0.776172,
2010-07-16, 03:24:04,VALID,998.212,VALID,0,VALID,89.587,VALID,0,VALID,23.6232,VALID,118,VALID,0.869141,
2010-07-16, 03:25:04,VALID,998.154,VALID,0,VALID,89.5412,VALID,0,VALID,23.6232,VALID,118,VALID,0.626172,
2010-07-16, 03:26:04,VALID,998.117,VALID,0,VALID,89.7243,VALID,0,VALID,23.5841,VALID,118,VALID,0.463672,
2010-07-16, 03:27:04,VALID,998.103,VALID,0,VALID,89.8083,VALID,0,VALID,23.5451,VALID,118,VALID,0,
2010-07-16, 03:28:04,VALID,998.105,VALID,0,VALID,90.0753,VALID,0,VALID,23.5043,VALID,138,VALID,0,
2010-07-16, 03:29:04,VALID,998.112,VALID,0,VALID,90.266,VALID,0,VALID,23.5238,VALID,157,VALID,1.38086,
2010-07-16, 03:30:04,VALID,998.102,VALID,0,VALID,90.0982,VALID,0,VALID,23.5646,VALID,146,VALID,1.14063,
2010-07-16, 03:31:04,VALID,998.104,VALID,0,VALID,89.9074,VALID,0,VALID,23.5433,VALID,144,VALID,0.621094,
2010-07-16, 03:32:04,VALID,998.115,VALID,0,VALID,89.7549,VALID,0,VALID,23.5433,VALID,144,VALID,0.139453,
2010-07-16, 03:33:04,VALID,998.122,VALID,0,VALID,89.8922,VALID,0,VALID,23.5646,VALID,144,VALID,0.147266,
2010-07-16, 03:34:04,VALID,998.123,VALID,0,VALID,90.0753,VALID,0,VALID,23.5841,VALID,144,VALID,0,
2010-07-16, 03:35:04,VALID,998.12,VALID,0,VALID,90.1363,VALID,0,VALID,23.6036,VALID,144,VALID,0,
2010-07-16, 03:36:04,VALID,998.139,VALID,0,VALID,89.999,VALID,0,VALID,23.6019,VALID,144,VALID,0,
2010-07-16, 03:37:04,VALID,998.129,VALID,0,VALID,89.9303,VALID,0,VALID,23.6427,VALID,144,VALID,0,
2010-07-16, 03:38:04,VALID,998.146,VALID,0,VALID,89.7091,VALID,0,VALID,23.7012,VALID,144,VALID,0,
2010-07-16, 03:39:04,VALID,998.143,VALID,0,VALID,89.5412,VALID,0,VALID,23.7012,VALID,144,VALID,0,
2010-07-16, 03:40:04,VALID,998.177,VALID,0,VALID,89.442,VALID,0,VALID,23.6799,VALID,144,VALID,0.976172,
2010-07-16, 03:41:04,VALID,998.155,VALID,0,VALID,89.0987,VALID,0,VALID,23.6994,VALID,134,VALID,1.69648,
2010-07-16, 03:42:04,VALID,998.157,VALID,0,VALID,89.1826,VALID,0,VALID,23.6409,VALID,116,VALID,1.73203,
2010-07-16, 03:43:04,VALID,998.132,VALID,0,VALID,89.6175,VALID,0,VALID,23.5841,VALID,110,VALID,1.41523,
2010-07-16, 03:44:04,VALID,998.127,VALID,0,VALID,89.9609,VALID,0,VALID,23.5238,VALID,108,VALID,1.34766,
2010-07-16, 03:45:04,VALID,998.105,VALID,0,VALID,90.266,VALID,0,VALID,23.5256,VALID,103,VALID,0.950781,
2010-07-16, 03:46:04,VALID,998.046,VALID,0,VALID,90.4186,VALID,0,VALID,23.4848,VALID,98,VALID,0.767969,
2010-07-16, 03:47:04,VALID,998.051,VALID,0,VALID,90.4873,VALID,0,VALID,23.4866,VALID,81,VALID,0.716406,